www.pogodaiklimat.ru

Погода и климат >> Архив погоды >> Индия >> Андхра-Прадеш >> Анантапур


ПОГОДА в Анантапуре

  • Прогноз погоды в Анантапуре
  • Монитор погоды в Анантапуре

АРХИВ ПОГОДЫ в Анантапуре

Время (UTC), дата Ветер
(напр.,м/с)
 
Видим.   Явления Облачность Т
(С)
Тd
(С)
f
(%)
Тe
(С)
Тes
(С)
Комфортность P
(гПа)
Po
(гПа)
Тmin
(С)
Tmax
(С)
R
(мм)
R24
(мм)
S
(см)
18 14.05 штиль 0 4000 м 3/0
[Ci sp]
+32.8 +19.8 46 +39 +39 очень
душно
1004.5 966.5
21 14.05 нст 1 4000 м 3/0
[Ac trans Ci sp]
+31.0 +20.1 52 +37 +37 очень
душно
1004.9 966.7
00 15.05 З 3 4000 м 3/0
[Ac trans Ci sp]
+28.8 +24.8 79 +41 +41 опасность
перегрева
1006.2 967.6
03 15.05 З 3 10 км 1/0
[Ci sp]
+30.0 +24.5 72 +42 +49 опасность
перегрева
1008.9 970.4 +28.0 +40.8
06 15.05 З 2 10 км 6/0
[Ac trans Ci sp]
+36.0 +23.7 49 +47 +61 опасность
перегрева
1007.3 969.5
09 15.05 нст 1 10 км 1/0
[Ac trans]
+40.0 +21.9 36 +48 +67 опасность
перегрева
1003.3 966.2
12 15.05 З 2 10 км 3/0
[Ci sp]
+40.0 +20.6 33 +46 +48 опасность
перегрева
1002.2 965.1 +41.6
15 15.05 В 4 4000 м 8/0
[Ac trans Ci sp]
+34.4 +21.9 48 +43 +43 опасность
перегрева
1005.2 967.4
18 15.05 В 2 4000 м 6/3 600 м
[Sc Ac trans Ci sp]
+32.2 +20.5 50 +39 +39 очень
душно
1006.5 968.4
21 15.05 нст 1 4000 м 4/0
[Ci sp]
+30.2 +19.5 53 +36 +36 очень
душно
1006.2 967.9
00 16.05 штиль 0 4000 м 3/0
[Ci sp]
+29.6 +22.8 67 +39 +39 очень
душно
1007.0 968.5
03 16.05 З 2 10 км 5/0
[Ci sp]
+31.2 +24.6 68 +44 +51 опасность
перегрева
1009.3 971.0 +28.1 +41.6
06 16.05 З 2 10 км 1/0
[Ci sp]
+36.4 +24.2 50 +48 +69 опасность
перегрева
1008.1 970.5
09 16.05 нст 1 10 км 1/1 600 м
[Sc]
+41.3 +23.8 37 +51 +68 опасность
перегрева
1004.4 967.4
12 16.05 нст 1 10 км 3/1 600 м
[Sc Ci sp]
+41.0 +22.0 34 +49 +51 опасность
перегрева
1003.1 966.1 +42.2
15 16.05 нст 1 10 км 3/0
[Ci sp]
+34.8 +21.6 46 +43 +43 опасность
перегрева
1005.1 967.3
18 16.05 нст 1 4000 м 4/1 600 м
[Sc Ac trans]
+33.8 +21.0 47 +41 +41 опасность
перегрева
1006.5 968.6
21 16.05 штиль 0 4000 м 5/3 600 м
[Sc Ac trans]
+31.4 +21.3 55 +39 +39 очень
душно
1005.5 967.3
00 17.05 нст 1 4000 м 1/0
[Ci sp]
+30.0 +23.0 66 +40 +40 очень
душно
1006.7 968.2
03 17.05 З 2 10 км 4/1 600 м
[Sc Ac trans]
+30.2 +24.4 71 +42 +48 опасность
перегрева
1009.2 970.8 +29.1 +42.2
06 17.05 нст 1 10 км 3/1 600 м
[Sc Ac trans]
+37.1 +23.0 44 +47 +66 опасность
перегрева
1007.5 970.0
09 17.05 С 2 10 км 4/1 600 м
[Sc Ac trans]
+41.5 +22.6 34 +50 +62 опасность
перегрева
1003.3 966.4
12 17.05 В 3 10 км 4/1 750 м
[Cu Sc Ci sp]
+38.0 +23.1 43 +48 +49 опасность
перегрева
1003.1 965.9 +42.7
15 17.05 нст 1 4000 м 6/4 600 м
[Sc Ac trans Ci sp]
+32.9 +20.6 48 +40 +40 очень
душно
1005.3 967.2
18 17.05 штиль 0 4000 м 3/0
[Ci sp]
+30.6 +20.3 54 +37 +37 очень
душно
1006.4 968.1
21 17.05 0 н/о 1005.9 967.3
00 18.05 нст 1 4000 м 10/4 600 м
[Sc]
+28.2 +22.0 69 +36 +36 очень
душно
967.7
03 18.05 нст 1 10 км 3/0
[Ci sp]
+30.8 +25.4 73 +45 +53 опасность
перегрева
1008.1 969.7 +28.0 +42.7
06 18.05 З 2 10 км ясно +37.4 +25.1 50 +51 +74 опасность
перегрева
1006.3 968.9
09 18.05 штиль 0 10 км 4/4 600 м
[Cu Sc]
+41.0 +24.5 39 +52 +65 опасность
перегрева
1003.0 966.0
12 18.05 В 2 10 км 1/1 750 м
[Cu Sc]
+40.4 +22.6 36 +49 +50 опасность
перегрева
1001.6 964.7 +42.4
15 18.05 нст 1 4000 м 1/1 600 м
[Sc]
+36.6 +21.0 40 +43 +43 опасность
перегрева
1003.6 966.1
18 18.05 В 3 4000 м 1/0
[Ci sp]
+35.4 +21.3 44 +43 +43 опасность
перегрева
1005.0 967.3
21 18.05 штиль 0 4000 м ясно +31.6 +21.5 55 +40 +40 очень
душно
1004.4 966.3
00 19.05 штиль 0 4000 м 3/1 600 м
[Sc Ci sp]
+30.0 +21.0 59 +38 +38 очень
душно
1005.6 967.1
03 19.05 З 3 10 км ясно +32.6 +25.5 66 +47 +54 опасность
перегрева
1007.0 968.9 +29.1 +42.4
06 19.05 З 2 10 км ясно +38.0 +24.5 46 +50 +71 опасность
перегрева
1005.8 968.5
09 19.05 нст 1 10 км 4/4 600 м
[Sc]
+41.6 +24.4 38 +53 +64 опасность
перегрева
1002.8 965.9
12 19.05 нст 1 10 км 5/4 600 м
[Sc Ac trans]
+41.0 +21.6 33 +48 +49 опасность
перегрева
1001.5 964.6 +42.6
15 19.05 штиль 0 4000 м 3/0
[Ac trans]
+36.4 +22.5 45 +46 +46 опасность
перегрева
1003.9 966.4
18 19.05 штиль 0 4000 м 4/4 600 м
[Sc]
+35.4 +20.5 42 +42 +42 опасность
перегрева
1005.5 967.8
21 19.05 Ю 2 4000 м 4/4 600 м
[Sc]
+31.4 +21.3 55 +39 +39 очень
душно
1005.7 967.5
00 20.05 З 2 4000 м 3/3 600 м
[Sc As op]
+30.0 +23.3 67 +40 +40 очень
душно
1006.3 968.0
03 20.05 ЮЗ 2 10 км 4/1 600 м
[Sc Ac trans]
+31.6 +23.5 62 +42 +48 опасность
перегрева
1008.2 969.9 +28.6 +42.6
06 20.05 ЮЗ 2 10 км 3/0
[Ci sp]
+37.8 +21.8 40 +46 +67 опасность
перегрева
1007.2 969.7
09 20.05 З 2 10 км 3/3 600 м
[Sc]
+42.0 +21.8 32 +49 +62 опасность
перегрева
1003.9 967.0
12 20.05 нст 1 10 км 3/3 600 м
[Sc]
+41.6 +17.3 25 +44 +46 опасность
перегрева
1002.0 965.1 +42.9
15 20.05 штиль 0 4000 м 4/4 600 м
[Sc]
+35.2 +19.2 39 +40 +40 очень
душно
1004.3 966.7
18 20.05 штиль 0 4000 м 6/6 600 м
[Sc]
+34.2 +20.1 44 +41 +41 опасность
перегрева
1005.7 967.9
21 20.05 штиль 0 4000 м 5/5 600 м
[Sc]
+32.2 +20.5 50 +39 +39 очень
душно
1005.2 967.1
00 21.05 З 2 10 км 6/3 600 м
[Sc Cs]
+30.4 +26.2 78 +46 +46 опасность
перегрева
1006.0 967.7
03 21.05 З 2 10 км 5/0
[Cs]
+33.0 +25.7 66 +48 +55 опасность
перегрева
1007.3 969.2 +29.7 +42.9
06 21.05 З 2 10 км 1/1 600 м
[Sc]
+39.0 +21.2 36 +46 +66 опасность
перегрева
1006.3 969.0
09 21.05 штиль 0 10 км 5/5 600 м
[Sc]
+42.4 +25.3 38 +55 +66 опасность
перегрева
1003.3 966.5
12 21.05 штиль 0 10 км {гроза} 5/5 600 м
[Cu Sc]
+38.4 +17.6 30 +42 +43 опасность
перегрева
1002.5 965.3 +43.3
15 21.05 нст 1 4000 м 1/1
[Sc]
+35.0 +18.9 39 +40 +40 очень
душно
1005.4 967.6

 

Местоположение метеостанции Анантапур (Андхра-Прадеш, Индия): широта 14.58 долгота 77.63 высота над уровнем моря 364 м.

В архиве по умолчанию представлена погода в Анантапуре за последнюю неделю. Архивные данные за месяц целиком и за предыдущие месяцы, начиная с января 2011 года, Вы можете получить, выбрав интересующий диапазон дат из раскрывающегося списка и нажав кнопку "Ввод!".


*Определитесь, кто Вы:
робот инопланетянин человек

Внимание! Время в таблицах - всемирное. Для получения местного времени необходимо прибавить поправку, которая равна 5.5 ч.

Смотрите также архив погоды в соседних городах и на ближайших метеорологических станциях:

Погода в Беллари (Карнатака, Индия) (105 км)
Погода в Чикканахолли (Карнатака, Индия) (106 км)
Погода в Читрадурге (Карнатака, Индия) (135 км)
Погода в Карнуле (Андхра-Прадеш, Индия) (144 км)
Погода в Маданапалле (Андхра-Прадеш, Индия) (150 км)
Погода в Чинтамани (Карнатака, Индия) (161 км)
Погода в Бенгалуру (Карнатака, Индия) (179 км)
Погода в Коппале (Карнатака, Индия) (181 км)
Погода в Бенгалуру аэропорту (Карнатака, Индия) (181 км)
Погода в Райчуре (Карнатака, Индия) (183 км)

Пояснения к столбцам:

Ветер - указаны скорость ветра в м/с - средняя за 10 мин, порывы в срок и между сроками (в фигурных скобках) и направление, откуда дует ветер: С - северный, СВ - северо-восточный, В - восточный, ЮВ - юго-восточный, Ю - южный, ЮЗ - юго-западный, З - западный, СЗ - северо-западный.
Видимость - горизонтальная дальность видимости в метрах или километрах. При видимости от 1 до 10 км при отсутствии осадков обычно наблюдается дымка, при ухудшении видимости до 1 км и менее - туман. В сухую погоду видимость может ухудшаться дымом, пылью или мглою.
Явления - указаны атмосферные явления, наблюдавшиеся в срок или в последний час перед сроком; фигурными скобками обозначены явления, наблюдавшиеся между сроками (за 1-3 часа до срока); квадратными скобками обозначены град или гололедные отложения с указанием их диаметра в мм.
Облачность - указаны через наклонную черту общая и нижняя облачность в баллах и высота нижней границы облаков в метрах; квадратными скобками обозначены формы облаков: Ci - перистые, Cs - перисто-слоистые, Cc - перисто-кучевые, Ac - высококучевые, As - высокослоистые, Sc - слоисто-кучевые, Ns - слоисто-дождевые, Cu - кучевые, Cb - кучево-дождевые. Подробнее классификацию облаков см. в Атласе облаков (PDF).
T - Температура воздуха - температура, измеренная на высоте 2 м над землей.
Td - Температура точки росы - температура, при понижении до которой содержащийся в воздухе водяной пар достигнет насыщения.
f - Относительная влажность воздуха - влажноcть воздуха, измеренная на высоте 2 м над землей.
Te - Эффективная температура - температура, которую ощущает одетый по сезону человек в тени. Характеристика душности погоды. При расчете учитывается влияние влажности воздуха и скорости ветра на теплоощущения человека.
Tes - Эффективная температура на солнце - температура, которую ощущает человек, с поправкой на солнечный нагрев. Характеристика знойности погоды. Зависит от высоты солнца над горизонтом, облачности и скорости ветра. Ночью, в пасмурную погоду, а также при ветре 12 м/с и более поправка равна нулю.
P - Атмосферное давление - приведенное к уровню моря атмосферное давление.
Po - Атмосферное давление - измеренное на уровне метеостанции атмосферное давление.
Tmin - Минимальная температура - минимум температуры воздуха на высоте 2 м над землей.
Tmax - Максимальная температура - максимум температуры воздуха на высоте 2 м над землей.
R - Количество осадков - Количество выпавших осадков за период времени, мм. При наведении курсора мыши на число - период времени, за который выпало указанное количество осадков.
R24 - Количество осадков - Количество выпавших осадков за 24 часа, мм.
S - Снежный покров - Высота снежного покрова, см. При наведении курсора мыши на число - состояние снежного покрова и степень покрытия местности в баллах.